Time,TemperatureF,DewpointF,PressureIn,WindDirection,WindDirectionDegrees,WindSpeedMPH,WindSpeedGustMPH,Humidity,HourlyPrecipIn,Conditions,Clouds,dailyrainin,SoftwareType,DateUTC
2013-07-14 00:02:00,73.2,28.2,30.21,ENE,67,0.0,0.0,19,0.02,,,0.00,WUHU21423XXSP,2013-07-14 04:02:00,
2013-07-14 00:04:00,73.2,28.2,30.21,ENE,67,0.0,0.0,19,0.02,,,0.00,WUHU21423XXSP,2013-07-14 04:04:00,
2013-07-14 00:06:00,73.2,28.2,30.21,ENE,67,0.0,0.0,19,0.02,,,0.00,WUHU21423XXSP,2013-07-14 04:06:00,
2013-07-14 00:08:00,73.2,28.2,30.20,ENE,67,0.0,0.0,19,0.02,,,0.00,WUHU21423XXSP,2013-07-14 04:08:00,
2013-07-14 00:10:00,73.2,28.2,30.21,ENE,67,0.0,0.0,19,0.02,,,0.00,WUHU21423XXSP,2013-07-14 04:10:00,
2013-07-14 00:17:00,73.0,28.1,30.20,ENE,67,0.0,0.0,19,0.00,,,0.00,WUHU21423XXSP,2013-07-14 04:17:00,
2013-07-14 00:23:00,73.0,28.1,30.20,ENE,67,0.0,0.0,19,0.00,,,0.00,WUHU21423XXSP,2013-07-14 04:23:00,
2013-07-14 00:30:00,72.7,27.7,30.20,ENE,67,0.0,0.0,19,0.00,,,0.00,WUHU21423XXSP,2013-07-14 04:30:00,
2013-07-14 00:36:00,72.7,27.7,30.20,ENE,67,0.0,0.0,19,0.00,,,0.00,WUHU21423XXSP,2013-07-14 04:36:00,
2013-07-14 00:43:00,72.5,27.7,30.20,ENE,67,0.0,0.0,20,0.00,,,0.00,WUHU21423XXSP,2013-07-14 04:43:00,
2013-07-14 00:49:00,72.7,29.4,30.21,ENE,67,0.0,0.0,20,0.00,,,0.00,WUHU21423XXSP,2013-07-14 04:49:00,
2013-07-14 00:55:00,72.3,29.0,30.20,ENE,67,0.0,0.0,20,0.00,,,0.00,WUHU21423XXSP,2013-07-14 04:55:00,
2013-07-14 01:05:00,72.3,29.0,30.21,ENE,67,0.0,0.0,20,0.00,,,0.00,WUHU21423XXSP,2013-07-14 05:05:00,
2013-07-14 01:10:00,72.0,29.7,30.21,ENE,67,0.0,0.0,21,0.00,,,0.00,WUHU21423XXSP,2013-07-14 05:10:00,
2013-07-14 01:17:00,71.8,29.6,30.21,ENE,67,0.0,0.0,21,0.00,,,0.00,WUHU21423XXSP,2013-07-14 05:17:00,
2013-07-14 01:24:00,72.0,29.7,30.21,ENE,67,0.0,0.0,21,0.00,,,0.00,WUHU21423XXSP,2013-07-14 05:24:00,
2013-07-14 01:30:00,72.1,29.9,30.21,ENE,67,0.0,0.0,21,0.00,,,0.00,WUHU21423XXSP,2013-07-14 05:30:00,
2013-07-14 01:36:00,72.1,29.9,30.21,ENE,67,0.0,0.0,21,0.00,,,0.00,WUHU21423XXSP,2013-07-14 05:36:00,
2013-07-14 01:43:00,72.1,29.9,30.21,ENE,67,0.0,0.0,21,0.00,,,0.00,WUHU21423XXSP,2013-07-14 05:43:00,
2013-07-14 01:49:00,72.3,30.1,30.21,ENE,67,0.0,0.0,21,0.00,,,0.00,WUHU21423XXSP,2013-07-14 05:49:00,
2013-07-14 01:55:00,72.3,30.1,30.21,ENE,67,0.0,0.0,21,0.00,,,0.00,WUHU21423XXSP,2013-07-14 05:55:00,
2013-07-14 02:02:00,72.3,30.1,30.21,ENE,67,0.0,0.0,21,0.00,,,0.00,WUHU21423XXSP,2013-07-14 06:02:00,
2013-07-14 02:08:00,72.5,30.1,30.21,ENE,67,0.0,0.0,21,0.00,,,0.00,WUHU21423XXSP,2013-07-14 06:08:00,
2013-07-14 02:15:00,72.3,30.1,30.21,ENE,67,0.0,0.0,21,0.00,,,0.00,WUHU21423XXSP,2013-07-14 06:15:00,
2013-07-14 02:21:00,72.3,30.1,30.21,ENE,67,0.0,0.0,21,0.00,,,0.00,WUHU21423XXSP,2013-07-14 06:21:00,
2013-07-14 02:28:00,72.1,29.9,30.21,ENE,67,0.0,0.0,21,0.00,,,0.00,WUHU21423XXSP,2013-07-14 06:28:00,
2013-07-14 02:34:00,72.1,29.9,30.22,ENE,67,0.0,0.0,21,0.00,,,0.00,WUHU21423XXSP,2013-07-14 06:34:00,
2013-07-14 02:40:00,72.1,29.9,30.21,ENE,67,0.0,0.0,21,0.00,,,0.00,WUHU21423XXSP,2013-07-14 06:40:00,
2013-07-14 02:47:00,71.8,29.6,30.22,ENE,67,0.0,0.0,21,0.00,,,0.00,WUHU21423XXSP,2013-07-14 06:47:00,
2013-07-14 02:53:00,71.6,29.4,30.22,ENE,67,0.0,0.0,21,0.00,,,0.00,WUHU21423XXSP,2013-07-14 06:53:00,
2013-07-14 03:00:00,71.4,29.3,30.22,ENE,67,0.0,0.0,21,0.00,,,0.00,WUHU21423XXSP,2013-07-14 07:00:00,
2013-07-14 03:06:00,71.4,29.3,30.22,ENE,67,0.0,0.0,21,0.00,,,0.00,WUHU21423XXSP,2013-07-14 07:06:00,
2013-07-14 03:12:00,71.2,29.1,30.22,ENE,67,0.0,0.0,21,0.00,,,0.00,WUHU21423XXSP,2013-07-14 07:12:00,
2013-07-14 03:19:00,71.4,29.1,30.22,ENE,67,0.0,0.0,21,0.00,,,0.00,WUHU21423XXSP,2013-07-14 07:19:00,
2013-07-14 03:25:00,71.4,29.3,30.23,ENE,67,0.0,0.0,21,0.00,,,0.00,WUHU21423XXSP,2013-07-14 07:25:00,
2013-07-14 03:32:00,71.6,29.4,30.23,ENE,67,0.0,0.0,21,0.00,,,0.00,WUHU21423XXSP,2013-07-14 07:32:00,
2013-07-14 03:38:00,71.4,29.3,30.22,ENE,67,0.0,0.0,21,0.00,,,0.00,WUHU21423XXSP,2013-07-14 07:38:00,
2013-07-14 03:45:00,71.4,29.3,30.23,ENE,67,0.0,0.0,21,0.00,,,0.00,WUHU21423XXSP,2013-07-14 07:45:00,
2013-07-14 03:51:00,71.4,29.3,30.23,ENE,67,0.0,0.0,21,0.00,,,0.00,WUHU21423XXSP,2013-07-14 07:51:00,
2013-07-14 03:57:00,71.4,29.3,30.23,ENE,67,0.0,0.0,21,0.00,,,0.00,WUHU21423XXSP,2013-07-14 07:57:00,
2013-07-14 04:04:00,71.4,29.3,30.23,ENE,67,0.0,0.0,21,0.00,,,0.00,WUHU21423XXSP,2013-07-14 08:04:00,
2013-07-14 04:10:00,71.4,29.3,30.23,ENE,67,0.0,0.0,21,0.00,,,0.00,WUHU21423XXSP,2013-07-14 08:10:00,
2013-07-14 04:17:00,71.4,29.3,30.23,ENE,67,0.0,0.0,21,0.00,,,0.00,WUHU21423XXSP,2013-07-14 08:17:00,
2013-07-14 04:23:00,71.4,29.3,30.23,ENE,67,0.0,0.0,21,0.00,,,0.00,WUHU21423XXSP,2013-07-14 08:23:00,
2013-07-14 04:30:00,71.2,29.1,30.23,ENE,67,0.0,0.0,21,0.00,,,0.00,WUHU21423XXSP,2013-07-14 08:30:00,
2013-07-14 04:36:00,71.2,30.1,30.23,ENE,67,0.0,0.0,22,0.00,,,0.00,WUHU21423XXSP,2013-07-14 08:36:00,
2013-07-14 04:42:00,71.2,30.1,30.23,ENE,67,0.0,0.0,22,0.00,,,0.00,WUHU21423XXSP,2013-07-14 08:42:00,
2013-07-14 04:49:00,71.2,30.1,30.23,ENE,67,0.0,0.0,22,0.00,,,0.00,WUHU21423XXSP,2013-07-14 08:49:00,
2013-07-14 04:55:00,71.2,30.1,30.23,ENE,67,0.0,0.0,22,0.00,,,0.00,WUHU21423XXSP,2013-07-14 08:55:00,
2013-07-14 05:02:00,71.2,30.1,30.23,ENE,67,0.0,0.0,22,0.00,,,0.00,WUHU21423XXSP,2013-07-14 09:02:00,
2013-07-14 05:08:00,70.9,29.9,30.24,ENE,67,0.0,0.0,22,0.00,,,0.00,WUHU21423XXSP,2013-07-14 09:08:00,
2013-07-14 05:15:00,70.9,29.9,30.24,ENE,67,0.0,0.0,22,0.00,,,0.00,WUHU21423XXSP,2013-07-14 09:15:00,
2013-07-14 05:21:00,70.9,29.9,30.24,ENE,67,0.0,0.0,22,0.00,,,0.00,WUHU21423XXSP,2013-07-14 09:21:00,
2013-07-14 05:27:00,70.5,29.6,30.24,ENE,67,0.0,0.0,22,0.00,,,0.00,WUHU21423XXSP,2013-07-14 09:27:00,
2013-07-14 05:34:00,70.5,29.6,30.25,ENE,67,0.0,0.0,22,0.00,,,0.00,WUHU21423XXSP,2013-07-14 09:34:00,
2013-07-14 05:40:00,70.3,29.4,30.24,ENE,67,0.0,0.0,22,0.00,,,0.00,WUHU21423XXSP,2013-07-14 09:40:00,
2013-07-14 05:47:00,70.3,29.4,30.25,ENE,67,0.0,0.0,22,0.00,,,0.00,WUHU21423XXSP,2013-07-14 09:47:00,
2013-07-14 05:53:00,70.3,29.4,30.25,ENE,67,0.0,0.0,22,0.00,,,0.00,WUHU21423XXSP,2013-07-14 09:53:00,
2013-07-14 06:00:00,70.5,29.6,30.25,ENE,67,0.0,0.0,22,0.00,,,0.00,WUHU21423XXSP,2013-07-14 10:00:00,
2013-07-14 06:06:00,70.5,29.6,30.25,ENE,67,0.0,0.0,22,0.00,,,0.00,WUHU21423XXSP,2013-07-14 10:06:00,
2013-07-14 06:12:00,70.7,29.7,30.25,ENE,67,0.0,0.0,22,0.00,,,0.00,WUHU21423XXSP,2013-07-14 10:12:00,
2013-07-14 06:19:00,70.9,29.9,30.25,ENE,67,0.0,0.0,22,0.00,,,0.00,WUHU21423XXSP,2013-07-14 10:19:00,
2013-07-14 06:25:00,70.9,29.9,30.25,ENE,67,0.0,0.0,22,0.00,,,0.00,WUHU21423XXSP,2013-07-14 10:25:00,
2013-07-14 06:32:00,70.9,30.0,30.25,ENE,67,0.0,0.0,22,0.00,,,0.00,WUHU21423XXSP,2013-07-14 10:32:00,
2013-07-14 06:38:00,71.2,30.0,30.25,ENE,67,0.0,0.0,22,0.00,,,0.00,WUHU21423XXSP,2013-07-14 10:38:00,
2013-07-14 06:45:00,71.2,30.1,30.26,ENE,67,0.0,0.0,22,0.00,,,0.00,WUHU21423XXSP,2013-07-14 10:45:00,
2013-07-14 06:51:00,71.2,30.1,30.26,ENE,67,0.0,0.0,22,0.00,,,0.00,WUHU21423XXSP,2013-07-14 10:51:00,
2013-07-14 06:57:00,71.4,30.3,30.26,ENE,67,0.0,0.0,22,0.00,,,0.00,WUHU21423XXSP,2013-07-14 10:57:00,
2013-07-14 07:04:00,71.4,30.3,30.26,ENE,67,0.0,0.0,22,0.00,,,0.00,WUHU21423XXSP,2013-07-14 11:04:00,
2013-07-14 07:10:00,71.6,30.5,30.26,ENE,67,0.0,0.0,22,0.00,,,0.00,WUHU21423XXSP,2013-07-14 11:10:00,
2013-07-14 07:17:00,71.4,30.3,30.26,ENE,67,0.0,0.0,22,0.00,,,0.00,WUHU21423XXSP,2013-07-14 11:17:00,
2013-07-14 07:23:00,71.6,30.3,30.27,ENE,67,0.0,0.0,22,0.00,,,0.00,WUHU21423XXSP,2013-07-14 11:23:00,
2013-07-14 07:29:00,71.4,30.3,30.27,ENE,67,0.0,0.0,22,0.00,,,0.00,WUHU21423XXSP,2013-07-14 11:29:00,
2013-07-14 07:36:00,71.4,30.3,30.27,ENE,67,0.0,0.0,22,0.00,,,0.00,WUHU21423XXSP,2013-07-14 11:36:00,
2013-07-14 07:42:00,71.8,30.6,30.27,ENE,67,0.0,0.0,22,0.00,,,0.00,WUHU21423XXSP,2013-07-14 11:42:00,
2013-07-14 07:49:00,72.1,30.9,30.27,ENE,67,0.0,0.0,22,0.00,,,0.00,WUHU21423XXSP,2013-07-14 11:49:00,
2013-07-14 07:55:00,72.9,31.6,30.28,NE,45,0.0,0.0,22,0.00,,,0.00,WUHU21423XXSP,2013-07-14 11:55:00,
2013-07-14 08:02:00,73.6,32.2,30.28,North,0,0.0,0.0,22,0.00,,,0.00,WUHU21423XXSP,2013-07-14 12:02:00,
2013-07-14 08:08:00,74.8,32.2,30.28,North,0,0.0,0.0,21,0.00,,,0.00,WUHU21423XXSP,2013-07-14 12:08:00,
2013-07-14 08:14:00,74.8,31.9,30.28,North,0,0.0,0.0,21,0.00,,,0.00,WUHU21423XXSP,2013-07-14 12:14:00,
2013-07-14 08:21:00,74.5,31.9,30.28,North,0,0.0,0.0,21,0.00,,,0.00,WUHU21423XXSP,2013-07-14 12:21:00,
2013-07-14 08:27:00,74.5,31.9,30.28,North,0,0.0,0.0,21,0.00,,,0.00,WUHU21423XXSP,2013-07-14 12:27:00,
2013-07-14 08:34:00,75.0,32.3,30.29,North,0,0.0,0.0,21,0.00,,,0.00,WUHU21423XXSP,2013-07-14 12:34:00,
2013-07-14 08:40:00,75.4,32.6,30.29,North,0,0.0,0.0,21,0.00,,,0.00,WUHU21423XXSP,2013-07-14 12:40:00,
2013-07-14 08:47:00,75.6,32.8,30.29,North,0,0.0,0.0,21,0.00,,,0.00,WUHU21423XXSP,2013-07-14 12:47:00,
2013-07-14 08:53:00,75.9,33.1,30.29,ENE,67,0.0,0.0,21,0.00,,,0.00,WUHU21423XXSP,2013-07-14 12:53:00,
2013-07-14 08:59:00,76.3,33.5,30.29,ENE,67,0.0,0.0,21,0.00,,,0.00,WUHU21423XXSP,2013-07-14 12:59:00,
2013-07-14 09:06:00,76.3,33.4,30.29,ENE,67,0.0,0.0,21,0.00,,,0.00,WUHU21423XXSP,2013-07-14 13:06:00,
2013-07-14 09:12:00,79.3,34.8,30.30,ENE,67,0.0,0.0,20,0.00,,,0.00,WUHU21423XXSP,2013-07-14 13:12:00,
2013-07-14 09:19:00,79.3,35.3,30.29,NE,45,0.0,0.0,19,0.00,,,0.00,WUHU21423XXSP,2013-07-14 13:19:00,
2013-07-14 09:25:00,79.7,31.8,30.30,NE,45,0.0,0.0,18,0.00,,,0.00,WUHU21423XXSP,2013-07-14 13:25:00,
2013-07-14 09:32:00,80.4,30.7,30.30,NNW,337,0.0,0.0,17,0.00,,,0.00,WUHU21423XXSP,2013-07-14 13:32:00,
2013-07-14 09:38:00,81.0,29.5,30.30,NW,315,0.0,0.0,15,0.00,,,0.00,WUHU21423XXSP,2013-07-14 13:38:00,
2013-07-14 09:44:00,80.6,25.6,30.30,East,90,0.0,0.0,14,0.00,,,0.00,WUHU21423XXSP,2013-07-14 13:44:00,
2013-07-14 09:51:00,80.2,22.3,30.30,SW,225,0.0,0.0,11,0.00,,,0.00,WUHU21423XXSP,2013-07-14 13:51:00,
2013-07-14 09:57:00,80.2,20.6,30.29,West,270,0.0,0.0,11,0.00,,,0.00,WUHU21423XXSP,2013-07-14 13:57:00,
2013-07-14 10:04:00,80.6,19.0,30.29,ESE,112,0.9,2.2,11,0.00,,,0.00,WUHU21423XXSP,2013-07-14 14:04:00,
2013-07-14 10:10:00,81.0,19.3,30.29,ESE,112,0.0,2.7,10,0.00,,,0.00,WUHU21423XXSP,2013-07-14 14:10:00,
2013-07-14 10:16:00,82.0,20.0,30.29,ESE,112,0.0,2.7,10,0.00,,,0.00,WUHU21423XXSP,2013-07-14 14:16:00,
2013-07-14 10:23:00,81.7,21.6,30.30,West,270,0.0,2.2,11,0.00,,,0.00,WUHU21423XXSP,2013-07-14 14:23:00,
2013-07-14 10:29:00,81.1,22.9,30.30,East,90,0.0,5.1,12,0.00,,,0.00,WUHU21423XXSP,2013-07-14 14:29:00,
2013-07-14 10:36:00,82.0,21.9,30.30,NE,45,0.0,5.1,11,0.00,,,0.00,WUHU21423XXSP,2013-07-14 14:36:00,
2013-07-14 10:42:00,81.7,23.3,30.30,East,90,4.9,4.9,14,0.00,,,0.00,WUHU21423XXSP,2013-07-14 14:42:00,
2013-07-14 10:49:00,81.9,27.0,30.30,WNW,292,0.0,4.9,14,0.00,,,0.00,WUHU21423XXSP,2013-07-14 14:49:00,
2013-07-14 10:55:00,79.9,25.2,30.30,NW,315,0.0,3.6,14,0.00,,,0.00,WUHU21423XXSP,2013-07-14 14:55:00,
2013-07-14 11:01:00,79.5,21.5,30.30,WNW,292,0.0,0.0,12,0.00,,,0.00,WUHU21423XXSP,2013-07-14 15:01:00,
2013-07-14 11:08:00,79.5,21.5,30.30,WNW,292,0.9,0.9,12,0.00,,,0.00,WUHU21423XXSP,2013-07-14 15:08:00,
2013-07-14 11:14:00,79.7,21.7,30.30,NW,315,0.0,0.9,12,0.00,,,0.00,WUHU21423XXSP,2013-07-14 15:14:00,
2013-07-14 11:21:00,81.0,22.7,30.30,ENE,67,0.9,0.9,12,0.00,,,0.00,WUHU21423XXSP,2013-07-14 15:21:00,
2013-07-14 11:27:00,80.8,29.3,30.30,East,90,4.3,4.3,16,0.00,,,0.00,WUHU21423XXSP,2013-07-14 15:27:00,
2013-07-14 11:34:00,80.2,30.6,30.30,ESE,112,0.7,4.3,17,0.00,,,0.00,WUHU21423XXSP,2013-07-14 15:34:00,
2013-07-14 11:40:00,79.7,28.4,30.30,East,90,0.0,1.6,16,0.00,,,0.00,WUHU21423XXSP,2013-07-14 15:40:00,
2013-07-14 11:46:00,81.0,26.1,30.30,East,90,1.6,1.6,14,0.00,,,0.00,WUHU21423XXSP,2013-07-14 15:46:00,
2013-07-14 11:53:00,80.8,31.0,30.30,East,90,0.0,1.6,17,0.00,,,0.00,WUHU21423XXSP,2013-07-14 15:53:00,
2013-07-14 11:59:00,80.8,31.0,30.29,ESE,112,3.4,4.3,17,0.00,,,0.00,WUHU21423XXSP,2013-07-14 15:59:00,
2013-07-14 12:06:00,81.5,31.6,30.29,ESE,112,2.2,4.3,17,0.00,,,0.00,WUHU21423XXSP,2013-07-14 16:06:00,
2013-07-14 12:12:00,82.2,37.3,30.29,SW,225,0.0,2.2,20,0.00,,,0.00,WUHU21423XXSP,2013-07-14 16:12:00,
2013-07-14 12:18:00,83.1,44.3,30.29,East,90,0.0,0.7,26,0.00,,,0.00,WUHU21423XXSP,2013-07-14 16:18:00,
2013-07-14 12:25:00,82.8,45.0,30.29,SE,135,0.0,0.7,27,0.00,,,0.00,WUHU21423XXSP,2013-07-14 16:25:00,
2013-07-14 12:31:00,83.1,44.3,30.29,ESE,112,1.6,1.6,26,0.00,,,0.00,WUHU21423XXSP,2013-07-14 16:31:00,
2013-07-14 12:38:00,83.8,47.0,30.29,East,90,1.1,1.6,28,0.00,,,0.00,WUHU21423XXSP,2013-07-14 16:38:00,
2013-07-14 12:44:00,84.4,49.5,30.28,ENE,67,3.6,3.6,30,0.00,,,0.00,WUHU21423XXSP,2013-07-14 16:44:00,
2013-07-14 12:51:00,84.0,49.1,30.28,ESE,112,0.0,3.6,30,0.00,,,0.00,WUHU21423XXSP,2013-07-14 16:51:00,
2013-07-14 12:57:00,84.0,51.2,30.28,ESE,112,2.2,4.0,31,0.00,,,0.00,WUHU21423XXSP,2013-07-14 16:57:00,
2013-07-14 13:03:00,85.1,51.9,30.28,WNW,292,0.0,2.2,32,0.00,,,0.00,WUHU21423XXSP,2013-07-14 17:03:00,
2013-07-14 13:10:00,86.2,56.0,30.28,East,90,2.9,2.9,36,0.00,,,0.00,WUHU21423XXSP,2013-07-14 17:10:00,
2013-07-14 13:16:00,86.2,55.2,30.28,East,90,6.9,6.9,35,0.00,,,0.00,WUHU21423XXSP,2013-07-14 17:16:00,
2013-07-14 13:23:00,86.0,60.3,30.28,ESE,112,1.8,6.9,42,0.00,,,0.00,WUHU21423XXSP,2013-07-14 17:23:00,
2013-07-14 13:29:00,85.3,58.4,30.28,ESE,112,0.0,6.9,40,0.00,,,0.00,WUHU21423XXSP,2013-07-14 17:29:00,
2013-07-14 13:35:00,85.3,56.0,30.28,ESE,112,0.0,3.8,37,0.00,,,0.00,WUHU21423XXSP,2013-07-14 17:35:00,
2013-07-14 13:42:00,86.5,56.8,30.28,East,90,0.0,3.1,38,0.00,,,0.00,WUHU21423XXSP,2013-07-14 17:42:00,
2013-07-14 13:48:00,86.7,60.9,30.27,WNW,292,0.0,1.1,42,0.00,,,0.00,WUHU21423XXSP,2013-07-14 17:48:00,
2013-07-14 13:55:00,86.7,62.5,30.27,WNW,292,0.0,0.0,42,0.00,,,0.00,WUHU21423XXSP,2013-07-14 17:55:00,
2013-07-14 14:01:00,86.4,61.2,30.27,ESE,112,0.2,3.1,43,0.00,,,0.00,WUHU21423XXSP,2013-07-14 18:01:00,
2013-07-14 14:08:00,84.9,57.2,30.27,East,90,2.0,2.0,39,0.00,,,0.00,WUHU21423XXSP,2013-07-14 18:08:00,
2013-07-14 14:14:00,85.6,59.9,30.27,South,180,2.5,3.8,42,0.00,,,0.00,WUHU21423XXSP,2013-07-14 18:14:00,
2013-07-14 14:20:00,86.0,60.9,30.26,ESE,112,1.8,3.8,43,0.00,,,0.00,WUHU21423XXSP,2013-07-14 18:20:00,
2013-07-14 14:27:00,86.5,60.7,30.26,SSW,202,0.0,2.0,42,0.00,,,0.00,WUHU21423XXSP,2013-07-14 18:27:00,
2013-07-14 14:33:00,86.7,62.2,30.26,SE,135,1.8,2.0,43,0.00,,,0.00,WUHU21423XXSP,2013-07-14 18:33:00,
2013-07-14 14:40:00,86.7,62.2,30.25,ESE,112,5.6,5.6,44,0.00,,,0.00,WUHU21423XXSP,2013-07-14 18:40:00,
2013-07-14 14:47:00,86.7,64.2,30.25,ESE,112,0.0,5.6,45,0.00,,,0.00,WUHU21423XXSP,2013-07-14 18:47:00,
2013-07-14 14:53:00,87.1,61.9,30.25,East,90,0.0,0.0,43,0.00,,,0.00,WUHU21423XXSP,2013-07-14 18:53:00,
2013-07-14 14:59:00,87.1,64.4,30.25,WNW,292,0.0,0.0,47,0.00,,,0.00,WUHU21423XXSP,2013-07-14 18:59:00,
2013-07-14 15:05:00,87.1,62.5,30.25,NW,315,0.0,0.7,44,0.00,,,0.00,WUHU21423XXSP,2013-07-14 19:05:00,
2013-07-14 15:12:00,87.4,64.7,30.25,East,90,2.7,2.7,47,0.00,,,0.00,WUHU21423XXSP,2013-07-14 19:12:00,
2013-07-14 15:18:00,87.6,64.2,30.24,West,270,2.5,2.7,46,0.00,,,0.00,WUHU21423XXSP,2013-07-14 19:18:00,
2013-07-14 15:25:00,87.6,62.8,30.24,WNW,292,0.0,2.5,44,0.00,,,0.00,WUHU21423XXSP,2013-07-14 19:25:00,
2013-07-14 15:31:00,88.2,65.3,30.24,East,90,0.0,0.0,47,0.00,,,0.00,WUHU21423XXSP,2013-07-14 19:31:00,
2013-07-14 15:38:00,87.4,64.7,30.24,ESE,112,0.0,0.7,47,0.00,,,0.00,WUHU21423XXSP,2013-07-14 19:38:00,
2013-07-14 15:44:00,88.2,64.7,30.24,ESE,112,0.0,0.0,46,0.00,,,0.00,WUHU21423XXSP,2013-07-14 19:44:00,
2013-07-14 15:50:00,88.0,65.2,30.25,East,90,0.0,1.8,47,0.00,,,0.00,WUHU21423XXSP,2013-07-14 19:50:00,
2013-07-14 15:57:00,88.0,65.8,30.24,SSE,157,0.0,1.8,48,0.00,,,0.00,WUHU21423XXSP,2013-07-14 19:57:00,
2013-07-14 16:03:00,88.5,65.0,30.24,East,90,1.3,1.3,46,0.00,,,0.00,WUHU21423XXSP,2013-07-14 20:03:00,
2013-07-14 16:10:00,88.7,63.9,30.24,East,90,0.0,1.3,48,0.00,,,0.00,WUHU21423XXSP,2013-07-14 20:10:00,
2013-07-14 16:16:00,88.5,65.0,30.23,West,270,0.0,0.0,45,0.00,,,0.00,WUHU21423XXSP,2013-07-14 20:16:00,
2013-07-14 16:22:00,87.1,61.9,30.24,NNE,22,0.0,1.8,43,0.00,,,0.00,WUHU21423XXSP,2013-07-14 20:22:00,
2013-07-14 16:29:00,85.8,61.4,30.23,NNE,22,0.0,0.0,44,0.00,,,0.00,WUHU21423XXSP,2013-07-14 20:29:00,
2013-07-14 16:35:00,85.5,59.8,30.24,NE,45,0.0,0.0,42,0.00,,,0.00,WUHU21423XXSP,2013-07-14 20:35:00,
2013-07-14 16:42:00,86.2,63.2,30.24,NE,45,0.0,0.0,46,0.00,,,0.00,WUHU21423XXSP,2013-07-14 20:42:00,
2013-07-14 16:48:00,87.6,64.4,30.23,NE,45,0.0,0.0,47,0.00,,,0.00,WUHU21423XXSP,2013-07-14 20:48:00,
2013-07-14 16:55:00,87.4,66.0,30.24,East,90,1.3,4.3,49,0.00,,,0.00,WUHU21423XXSP,2013-07-14 20:55:00,
2013-07-14 17:01:00,88.3,66.4,30.24,ESE,112,0.0,4.3,49,0.00,,,0.00,WUHU21423XXSP,2013-07-14 21:01:00,
2013-07-14 17:07:00,86.9,66.6,30.24,ENE,67,0.0,0.0,48,0.00,,,0.00,WUHU21423XXSP,2013-07-14 21:07:00,
2013-07-14 17:14:00,86.7,64.7,30.23,ENE,67,0.0,0.0,48,0.00,,,0.00,WUHU21423XXSP,2013-07-14 21:14:00,
2013-07-14 17:20:00,87.6,64.9,30.24,ENE,67,0.0,0.0,47,0.00,,,0.00,WUHU21423XXSP,2013-07-14 21:20:00,
2013-07-14 17:27:00,87.1,65.0,30.23,ENE,67,0.0,0.0,48,0.00,,,0.00,WUHU21423XXSP,2013-07-14 21:27:00,
2013-07-14 17:33:00,85.8,61.2,30.23,ENE,67,0.0,0.0,43,0.00,,,0.00,WUHU21423XXSP,2013-07-14 21:33:00,
2013-07-14 17:40:00,85.1,57.4,30.23,ENE,67,0.0,0.0,39,0.00,,,0.00,WUHU21423XXSP,2013-07-14 21:40:00,
2013-07-14 17:46:00,85.3,59.0,30.23,ENE,67,0.0,0.0,41,0.00,,,0.00,WUHU21423XXSP,2013-07-14 21:46:00,
2013-07-14 17:52:00,85.8,59.5,30.22,ENE,67,0.0,0.0,41,0.00,,,0.00,WUHU21423XXSP,2013-07-14 21:52:00,
2013-07-14 17:59:00,86.9,61.7,30.22,ENE,67,0.0,0.0,43,0.00,,,0.00,WUHU21423XXSP,2013-07-14 21:59:00,
2013-07-14 18:05:00,87.1,62.5,30.22,ENE,67,0.0,0.0,44,0.00,,,0.00,WUHU21423XXSP,2013-07-14 22:05:00,
2013-07-14 18:12:00,87.4,64.7,30.22,ENE,67,0.0,0.0,47,0.00,,,0.00,WUHU21423XXSP,2013-07-14 22:12:00,
2013-07-14 18:18:00,87.6,64.9,30.22,ENE,67,0.0,0.0,47,0.00,,,0.00,WUHU21423XXSP,2013-07-14 22:18:00,
2013-07-14 18:25:00,88.0,65.8,30.22,ENE,67,0.0,0.0,48,0.00,,,0.00,WUHU21423XXSP,2013-07-14 22:25:00,
2013-07-14 18:31:00,87.6,63.6,30.22,ENE,67,0.0,0.0,45,0.00,,,0.00,WUHU21423XXSP,2013-07-14 22:31:00,
2013-07-14 18:37:00,86.5,63.0,30.23,ENE,67,0.0,0.0,46,0.00,,,0.00,WUHU21423XXSP,2013-07-14 22:37:00,
2013-07-14 18:44:00,85.8,62.6,30.23,ENE,67,0.0,0.0,46,0.00,,,0.00,WUHU21423XXSP,2013-07-14 22:44:00,
2013-07-14 18:50:00,84.9,61.3,30.22,ENE,67,0.0,0.0,43,0.00,,,0.00,WUHU21423XXSP,2013-07-14 22:50:00,
2013-07-14 18:57:00,84.6,59.8,30.22,ENE,67,0.0,0.0,43,0.00,,,0.00,WUHU21423XXSP,2013-07-14 22:57:00,
2013-07-14 19:03:00,84.0,56.4,30.23,ENE,67,0.0,0.0,39,0.00,,,0.00,WUHU21423XXSP,2013-07-14 23:03:00,
2013-07-14 19:09:00,83.8,57.1,30.23,ENE,67,0.0,0.0,41,0.00,,,0.00,WUHU21423XXSP,2013-07-14 23:09:00,
2013-07-14 19:16:00,83.1,56.7,30.23,ENE,67,0.0,0.0,40,0.00,,,0.00,WUHU21423XXSP,2013-07-14 23:16:00,
2013-07-14 19:22:00,82.6,54.3,30.23,ENE,67,0.0,0.0,38,0.00,,,0.00,WUHU21423XXSP,2013-07-14 23:22:00,
2013-07-14 19:29:00,82.0,52.3,30.23,ENE,67,0.0,0.0,36,0.00,,,0.00,WUHU21423XXSP,2013-07-14 23:29:00,
2013-07-14 19:35:00,81.5,51.0,30.23,ENE,67,0.0,0.0,35,0.00,,,0.00,WUHU21423XXSP,2013-07-14 23:35:00,
2013-07-14 19:42:00,80.8,49.0,30.24,ENE,67,0.0,0.0,32,0.00,,,0.00,WUHU21423XXSP,2013-07-14 23:42:00,
2013-07-14 19:48:00,80.4,45.2,30.24,ENE,67,0.0,0.0,29,0.00,,,0.00,WUHU21423XXSP,2013-07-14 23:48:00,
2013-07-14 19:54:00,79.7,42.5,30.23,ENE,67,0.0,0.0,27,0.00,,,0.00,WUHU21423XXSP,2013-07-14 23:54:00,
2013-07-14 20:01:00,79.0,39.7,30.24,ENE,67,0.0,0.0,25,0.00,,,0.00,WUHU21423XXSP,2013-07-15 00:01:00,
2013-07-14 20:07:00,78.1,37.9,30.24,ENE,67,0.0,0.0,24,0.00,,,0.00,WUHU21423XXSP,2013-07-15 00:07:00,
2013-07-14 20:14:00,77.4,36.5,30.24,ENE,67,0.0,0.0,23,0.00,,,0.00,WUHU21423XXSP,2013-07-15 00:14:00,
2013-07-14 20:20:00,76.5,34.8,30.24,ENE,67,0.0,0.0,21,0.00,,,0.00,WUHU21423XXSP,2013-07-15 00:20:00,
2013-07-14 20:27:00,76.1,32.2,30.24,ENE,67,0.0,0.0,20,0.00,,,0.00,WUHU21423XXSP,2013-07-15 00:27:00,
2013-07-14 20:33:00,75.7,31.9,30.24,ENE,67,0.0,0.0,20,0.00,,,0.00,WUHU21423XXSP,2013-07-15 00:33:00,
2013-07-14 20:39:00,75.4,28.3,30.24,ENE,67,0.0,0.0,18,0.00,,,0.00,WUHU21423XXSP,2013-07-15 00:39:00,
2013-07-14 20:46:00,75.0,28.0,30.24,ENE,67,0.0,0.0,18,0.00,,,0.00,WUHU21423XXSP,2013-07-15 00:46:00,
2013-07-14 20:52:00,74.8,26.2,30.24,ENE,67,0.0,0.0,17,0.00,,,0.00,WUHU21423XXSP,2013-07-15 00:52:00,
2013-07-14 20:59:00,74.5,25.9,30.24,ENE,67,0.0,0.0,17,0.00,,,0.00,WUHU21423XXSP,2013-07-15 00:59:00,
2013-07-14 21:05:00,74.3,24.2,30.25,ENE,67,0.0,0.0,16,0.00,,,0.00,WUHU21423XXSP,2013-07-15 01:05:00,
2013-07-14 21:11:00,74.1,24.0,30.25,ENE,67,0.0,0.0,16,0.00,,,0.00,WUHU21423XXSP,2013-07-15 01:11:00,
2013-07-14 21:18:00,74.1,22.4,30.25,ENE,67,0.0,0.0,15,0.00,,,0.00,WUHU21423XXSP,2013-07-15 01:18:00,
2013-07-14 21:24:00,73.9,22.2,30.25,ENE,67,0.0,0.0,15,0.00,,,0.00,WUHU21423XXSP,2013-07-15 01:24:00,
2013-07-14 21:31:00,73.9,22.2,30.25,ENE,67,0.0,0.0,15,0.00,,,0.00,WUHU21423XXSP,2013-07-15 01:31:00,
2013-07-14 21:37:00,73.8,22.1,30.26,ENE,67,0.0,0.0,15,0.00,,,0.00,WUHU21423XXSP,2013-07-15 01:37:00,
2013-07-14 21:43:00,73.6,23.6,30.26,ENE,67,0.0,0.0,16,0.00,,,0.00,WUHU21423XXSP,2013-07-15 01:43:00,
2013-07-14 21:50:00,73.6,23.6,30.26,ENE,67,0.0,0.0,16,0.00,,,0.00,WUHU21423XXSP,2013-07-15 01:50:00,
2013-07-14 21:56:00,73.4,23.6,30.26,ENE,67,0.0,0.0,16,0.00,,,0.00,WUHU21423XXSP,2013-07-15 01:56:00,
2013-07-14 22:03:00,73.4,23.5,30.26,ENE,67,0.0,0.0,16,0.00,,,0.00,WUHU21423XXSP,2013-07-15 02:03:00,
2013-07-14 22:09:00,73.2,23.3,30.27,ENE,67,0.0,0.0,16,0.00,,,0.00,WUHU21423XXSP,2013-07-15 02:09:00,
2013-07-14 22:16:00,73.2,23.3,30.26,ENE,67,0.0,0.0,16,0.00,,,0.00,WUHU21423XXSP,2013-07-15 02:16:00,
2013-07-14 22:22:00,73.0,23.1,30.27,ENE,67,0.0,0.0,16,0.00,,,0.00,WUHU21423XXSP,2013-07-15 02:22:00,
2013-07-14 22:28:00,73.0,23.1,30.27,ENE,67,0.0,0.0,16,0.00,,,0.00,WUHU21423XXSP,2013-07-15 02:28:00,
2013-07-14 22:35:00,73.0,23.1,30.27,ENE,67,0.0,0.0,16,0.00,,,0.00,WUHU21423XXSP,2013-07-15 02:35:00,
2013-07-14 22:41:00,73.2,23.3,30.27,ENE,67,0.0,0.0,16,0.00,,,0.00,WUHU21423XXSP,2013-07-15 02:41:00,
2013-07-14 22:48:00,73.0,24.8,30.27,ENE,67,0.0,0.0,17,0.00,,,0.00,WUHU21423XXSP,2013-07-15 02:48:00,
2013-07-14 22:54:00,73.0,24.8,30.27,ENE,67,0.0,0.0,17,0.00,,,0.00,WUHU21423XXSP,2013-07-15 02:54:00,
2013-07-14 23:00:00,72.9,24.6,30.27,ENE,67,0.0,0.0,17,0.00,,,0.00,WUHU21423XXSP,2013-07-15 03:00:00,
2013-07-14 23:07:00,72.7,24.5,30.27,ENE,67,0.0,0.0,17,0.00,,,0.00,WUHU21423XXSP,2013-07-15 03:07:00,
2013-07-14 23:13:00,72.5,24.3,30.27,ENE,67,0.0,0.0,17,0.00,,,0.00,WUHU21423XXSP,2013-07-15 03:13:00,
2013-07-14 23:20:00,72.5,24.3,30.27,ENE,67,0.0,0.0,17,0.00,,,0.00,WUHU21423XXSP,2013-07-15 03:20:00,
2013-07-14 23:26:00,72.3,24.2,30.27,ENE,67,0.0,0.0,17,0.00,,,0.00,WUHU21423XXSP,2013-07-15 03:26:00,
2013-07-14 23:33:00,72.3,24.2,30.27,ENE,67,0.0,0.0,18,0.00,,,0.00,WUHU21423XXSP,2013-07-15 03:33:00,
2013-07-14 23:39:00,72.1,25.6,30.27,ENE,67,0.0,0.0,18,0.00,,,0.00,WUHU21423XXSP,2013-07-15 03:39:00,
2013-07-14 23:45:00,72.1,25.6,30.27,ENE,67,0.0,0.0,18,0.00,,,0.00,WUHU21423XXSP,2013-07-15 03:45:00,
2013-07-14 23:52:00,72.1,25.6,30.27,ENE,67,0.0,0.0,18,0.00,,,0.00,WUHU21423XXSP,2013-07-15 03:52:00,
2013-07-14 23:58:00,72.1,25.6,30.27,ENE,67,0.0,0.0,18,0.00,,,0.00,WUHU21423XXSP,2013-07-15 03:58:00,